CZ-6A DEB

Satellite information

Favourite Embed

Satellite Type and Status

DEBRISIN ORBIT

Key statistics

Satellite CZ-6A DEB at a glance.

Uptime

1079

Days in orbit

Revolutions

≈ 14.2

Per day

Orbit

SSO

Sun Synchronous Orbit

Inclination

98.8

Latest

Satellite identification and parameters

Extended collection of information and parameters for CZ-6A DEB.

Object identification

Identified? True

Debris? True

Object name: CZ-6A DEB

International designator: 2022-151AHZ

Object number (NORAD): 58431

Object ID (CCSDS): 58431

Country: PEOPLES REPUBLIC OF CHINA (PRC)

Current information (Y/N): Y

RCS size: SMALL

Orbital parameters

Period: 101.342 minutes

Inclination: 98.8391 deg

SMA: 7200.345 km

Apoapsis: 859.25 km

Periapsis: 785.169 km

RAAN: 301.7996 deg

Eccentricy: 0.00514429

Argument of periapsis: 284.5007 deg

Mean anomaly: 75.0466 deg

Mean motion: 14.20930478 rev/day

Mean motion (dot): 0.00006265 rev/day2

B* drag term: 0.0028740927 1/REarth

Two-line elements (TLE)

Creation date: Oct. 23, 2025, 6:40 p.m.

Reference frame: TEME

Reference center: EARTH

Epoch: Oct. 22, 2025, 11:35 p.m. UTC

TLE line 0: 0 CZ-6A DEB

TLE line 1: 1 58431U 22151AHZ 25295.98277750 .00006265 00000-0 28741-2 0 9993

TLE line 2: 2 58431 98.8391 301.7996 0051443 284.5007 75.0466 14.20930478133057

Live tracking on map

Real-time ground track for satellite CZ-6A DEB.

In-orbit conjunctions

A list of the most updated potential collisions computed for object CZ-6A DEB.

Target Orbit TCA Probability of collision Miss distance Type
DMSP 5D-2 F9 (USA 29) SSO 2025-05-07 03:30:43 0.0001003066 302.0 (m) PAYLOAD
CZ-6A DEB LEO 2025-02-23 02:44:42 0.0001231641 869.0 (m) DEBRIS
CZ-4C DEB SSO 2024-11-08 14:24:10 0.0004400439 216.0 (m) DEBRIS

Associated space launch

Chinese satellite reported for atmospheric/ocean/environmental/spatial parameter research purposes, details TBD.

CZ-6A DEB was lifted into orbit during the mission ‘Long March 6A | Yunhai 3’, on board a Long March 6A space rocket.

The launch took place on Nov. 11, 2022, 10:52 p.m. from Launch Complex 9A.

For more information about the launch, click the button.

Launch to space Long March 6A | Yunhai 3
Long March 6A | Yunhai 3

Agency: N/A

Status: Launch Successful

Launch date: Nov. 11, 2022, 10:52 p.m. UTC

Rocket: Long March 6A

Launch pad: Launch Complex 9A

Location: Taiyuan Satellite Launch Center, People's Republic of China

...

Latest news about this satellite

There are no fresh news available about this satellite. Check back as we update our databases every day.


Newsletter sign-up

Weekly statistics, charts and insights to help you stay on top of the space industry.